Regional Weather Roundup
Issued by NWS

Home | Current Version | Previous Version | Graphics & Text | Print | Product List | Glossary On
Versions: 1 2 3 4 5 6 7 8 9 10 11 12 13 14 15 16 17 18 19 20 21 22 23 24 25 26 27 28 29 30 31 32 33 34 35 36 37 38 39 40 41 42 43 44 45 46 47 48 49 50
000
ASUS43 KTOP 300808
RWRKS

WEATHER ROUNDUP FOR KANSAS
NATIONAL WEATHER SERVICE GOODLAND KS
300 AM CDT TUE AUG 30 2016

NOTE:  "FAIR" INDICATES FEW OR NO CLOUDS BELOW 12,000 FEET WITH NO
SIGNIFICANT WEATHER AND/OR OBSTRUCTIONS TO VISIBILITY.

KSZ001>006-013>018-027>032-041>047-300900-
NORTHWEST KANSAS

CITY           SKY/WX    TMP DP  RH WIND       PRES   REMARKS
GOODLAND       MOCLDY    60  58  92 S3        30.26F
HAYS           CLOUDY    66  59  77 CALM      30.20F
HILL CITY      CLOUDY    67  65  93 CALM      30.21F
RUSSELL        CLOUDY    67  67 100 NW3       30.18F FOG
$$

KSZ061>065-074>080-084>089-300900-
SOUTHWEST KANSAS

CITY           SKY/WX    TMP DP  RH WIND       PRES   REMARKS
DODGE CITY     LGT RAIN  68  67  96 CALM      30.21F FOG
ELKHART          N/A     65  61  87 S5          N/A
GARDEN CITY    PTCLDY    66  65  96 SE7       30.21F
GREAT BEND     MOCLDY    68  61  77 N3        30.19F
LIBERAL        CLOUDY    68  64  88 SW5       30.23F
PRATT          MOCLDY    67  65  96 N3        30.19F
$$

KSZ066>073-081>083-090>101-300900-
SOUTHEAST KANSAS

CITY           SKY/WX    TMP DP  RH WIND       PRES   REMARKS
CHANUTE        CLOUDY    73  72  96 CALM      30.13S
COFFEYVILLE    CLEAR     72  71  97 CALM      30.11F
HUTCHINSON     CLOUDY    73  69  87 N5        30.16F
MEDICINE LODGE   N/A     70  68  93 NW3       30.15F
NEWTON         CLEAR     69  69 100 N3        30.16F
PARSONS        CLEAR     70  69  97 CALM      30.13S
WICHITA INTL   MOCLDY    74  70  87 CALM      30.14F
WICHITA JABRA  CLEAR     71  70  96 N3        30.15S
WICHITA MCCONL MOCLDY    74  71  88 CALM      30.14S
WINFIELD       CLOUDY    74  69  85 NE5       30.13F
$$

KSZ007>012-019>026-033>040-048>060-102>105-300900-
NORTHEAST KANSAS

CITY           SKY/WX    TMP DP  RH WIND       PRES   REMARKS
CONCORDIA      LGT RAIN  69  67  93 N8        30.19S
EMPORIA        CLOUDY    72  71  97 N6        30.14F
LAWRENCE       CLOUDY    74  72  93 N9        30.15S
MANHATTAN      MOCLDY    71  67  87 NE5       30.15F
MARYSVILLE     CLOUDY    68  68 100 SE3       30.16F
OLATHE IND     CLOUDY    72  68  87 E12G22    30.15F THUNDER FOG
OLATHE EXE     TSTM      69  68  96 W5        30.17S
SALINA         PTCLDY    73  69  87 CALM      30.16F
TOPEKA BILLARD PTCLDY    72  69  90 NE6       30.15F
TOPEKA FORBES  PTCLDY    74  69  85 NE10      30.16S
$$



USA.gov is the U.S. government's official web portal to all federal, state and local government web resources and services.